When you browse on this site, cookies collect data to enhance your experience and personalize the content and advertising you see.
Visit our Privacy Policy to learn more. By continuing to use the site, you agree to this use of cookies and data.
  • In Hungary
  • List of Countries
  • For 7 days
  • Water Temperature
  • Satellite Maps
  • Weather Map
  • News
  • Weather Widgets
  • user-avatar
    Login

    Hourly Weather Laszkar Gah

    Today, 18 January, Friday

    Time Temperature Precipitation Wind Pressure Humidity
    00:00 +17°C° 0 mm 5 mps 692 mmHg 21%
    01:00 +17°C° 0 mm 5 mps 692 mmHg 22%
    02:00 +17°C° 0 mm 5 mps 692 mmHg 25%
    03:00 +17°C° 0 mm 5 mps 691 mmHg 29%
    04:00 +17°C° 0 mm 4 mps 691 mmHg 32%
    05:00 +17°C° 0 mm 4 mps 691 mmHg 37%
    06:00 +15°C° 0 mm 4 mps 691 mmHg 41%
    07:00 +15°C° 0 mm 4 mps 691 mmHg 45%
    08:00 +17°C° 0 mm 4 mps 692 mmHg 43%
    09:00 +19°C° 0 mm 4 mps 692 mmHg 41%
    10:00 +21°C° 0 mm 4 mps 693 mmHg 39%
    11:00 +22°C° 0 mm 4 mps 693 mmHg 37%
    12:00 +23°C° 0 mm 5 mps 692 mmHg 35%
    13:00 +24°C° 0 mm 6 mps 692 mmHg 33%
    14:00 +23°C° 0 mm 5 mps 692 mmHg 32%
    15:00 +23°C° 0 mm 5 mps 692 mmHg 31%
    16:00 +23°C° 0 mm 4 mps 692 mmHg 30%
    17:00 +21°C° 0.1 mm 4 mps 691 mmHg 34%
    18:00 +20°C° 0.1 mm 4 mps 691 mmHg 38%
    19:00 +18°C° 0.1 mm 3 mps 691 mmHg 41%
    20:00 +18°C° 0.1 mm 3 mps 691 mmHg 45%
    21:00 +17°C° 0.1 mm 3 mps 691 mmHg 48%
    22:00 +16°C° 0.1 mm 3 mps 691 mmHg 51%
    23:00 +16°C° 0.1 mm 3 mps 691 mmHg 54%

    Tomorrow, 19 January, Saturday

    Time Temperature Precipitation Wind Pressure Humidity
    00:00 +16°C° 0.1 mm 3 mps 691 mmHg 57%
    01:00 +14°C° 0.1 mm 3 mps 691 mmHg 60%
    02:00 +14°C° 0 mm 3 mps 691 mmHg 61%
    03:00 +14°C° 0 mm 3 mps 690 mmHg 62%
    04:00 +13°C° 0 mm 3 mps 690 mmHg 62%
    05:00 +13°C° 0 mm 3 mps 691 mmHg 62%
    06:00 +13°C° 0 mm 3 mps 691 mmHg 62%
    07:00 +13°C° 0 mm 3 mps 691 mmHg 62%
    08:00 +14°C° 0 mm 3 mps 692 mmHg 58%
    09:00 +17°C° 0 mm 3 mps 692 mmHg 54%
    10:00 +19°C° 0 mm 3 mps 693 mmHg 50%
    11:00 +20°C° 0 mm 4 mps 693 mmHg 44%
    12:00 +20°C° 0 mm 4 mps 692 mmHg 39%
    13:00 +21°C° 0 mm 4 mps 692 mmHg 34%
    14:00 +21°C° 0 mm 4 mps 691 mmHg 34%
    15:00 +21°C° 0 mm 3 mps 691 mmHg 34%
    16:00 +21°C° 0 mm 3 mps 691 mmHg 34%
    17:00 +20°C° 0.3 mm 3 mps 690 mmHg 38%
    18:00 +18°C° 0.3 mm 2 mps 690 mmHg 42%
    19:00 +17°C° 0.3 mm 2 mps 690 mmHg 45%
    20:00 +16°C° 0.4 mm 3 mps 690 mmHg 50%
    21:00 +16°C° 0.4 mm 3 mps 689 mmHg 54%
    22:00 +14°C° 0.4 mm 4 mps 689 mmHg 58%
    23:00 +14°C° 0 mm 4 mps 689 mmHg 58%

    Day after tomorrow, 20 January, Sunday

    Time Temperature Precipitation Wind Pressure Humidity
    00:00 +13°C° 0 mm 3 mps 689 mmHg 57%
    01:00 +14°C° 0 mm 2 mps 689 mmHg 56%
    02:00 +13°C° 0 mm 3 mps 690 mmHg 54%
    03:00 +13°C° 0 mm 4 mps 690 mmHg 51%
    04:00 +12°C° 0 mm 5 mps 690 mmHg 48%
    05:00 +10°C° 0 mm 5 mps 690 mmHg 48%
    06:00 +10°C° 0 mm 5 mps 691 mmHg 47%
    07:00 +9°C° 0 mm 6 mps 691 mmHg 47%
    08:00 +9°C° 0 mm 7 mps 692 mmHg 42%
    09:00 +10°C° 0 mm 7 mps 693 mmHg 36%
    10:00 +11°C° 0 mm 8 mps 694 mmHg 31%
    11:00 +11°C° 0 mm 8 mps 694 mmHg 27%
    12:00 +12°C° 0 mm 9 mps 694 mmHg 24%
    13:00 +13°C° 0 mm 9 mps 694 mmHg 21%
    14:00 +12°C° 0 mm 9 mps 694 mmHg 21%
    15:00 +12°C° 0 mm 8 mps 693 mmHg 22%
    16:00 +11°C° 0 mm 8 mps 693 mmHg 22%
    17:00 +10°C° 0 mm 7 mps 694 mmHg 23%
    18:00 +9°C° 0 mm 6 mps 694 mmHg 25%
    19:00 +8°C° 0 mm 6 mps 695 mmHg 27%
    20:00 +8°C° 0 mm 5 mps 695 mmHg 29%
    21:00 +7°C° 0 mm 4 mps 695 mmHg 32%
    22:00 +6°C° 0 mm 4 mps 695 mmHg 34%
    23:00 +7°C° 0 mm 3 mps 695 mmHg 36%

    21 January, Monday

    Time Temperature Precipitation Wind Pressure Humidity
    00:00 +5°C° 0 mm 3 mps 695 mmHg 37%
    01:00 +5°C° 0 mm 3 mps 695 mmHg 39%
    02:00 +5°C° 0 mm 2 mps 695 mmHg 40%
    03:00 +5°C° 0 mm 2 mps 695 mmHg 41%
    04:00 +4°C° 0 mm 2 mps 695 mmHg 42%
    05:00 +4°C° 0 mm 2 mps 695 mmHg 43%
    06:00 +5°C° 0 mm 1 mps 695 mmHg 44%
    07:00 +5°C° 0 mm 1 mps 696 mmHg 45%
    08:00 +6°C° 0 mm 1 mps 696 mmHg 42%
    09:00 +7°C° 0 mm 1 mps 696 mmHg 39%
    10:00 +7°C° 0 mm 2 mps 697 mmHg 35%
    11:00 +9°C° 0 mm 1 mps 696 mmHg 33%
    12:00 +10°C° 0 mm 1 mps 696 mmHg 30%
    13:00 +11°C° 0 mm 1 mps 695 mmHg 28%
    14:00 +11°C° 0 mm 1 mps 695 mmHg 27%
    15:00 +11°C° 0 mm 1 mps 695 mmHg 26%
    16:00 +11°C° 0 mm 1 mps 694 mmHg 26%
    17:00 +11°C° 0 mm 1 mps 694 mmHg 28%
    18:00 +10°C° 0 mm 1 mps 695 mmHg 30%
    19:00 +10°C° 0 mm 1 mps 695 mmHg 32%
    20:00 +9°C° 0 mm 1 mps 695 mmHg 33%
    21:00 +9°C° 0 mm 1 mps 695 mmHg 35%
    22:00 +7°C° 0 mm 2 mps 695 mmHg 37%
    23:00 +8°C° 0 mm 1 mps 694 mmHg 39%

    22 January, Tuesday

    Time Temperature Precipitation Wind Pressure Humidity
    00:00 +8°C° 0 mm 1 mps 694 mmHg 42%
    01:00 +7°C° 0 mm 1 mps 694 mmHg 45%
    02:00 +7°C° 0 mm 1 mps 693 mmHg 47%
    03:00 +6°C° 0 mm 1 mps 693 mmHg 50%
    04:00 +6°C° 0 mm 1 mps 693 mmHg 52%
    05:00 +6°C° 0 mm 1 mps 693 mmHg 52%
    06:00 +6°C° 0 mm 1 mps 694 mmHg 52%
    07:00 +4°C° 0 mm 2 mps 694 mmHg 52%
    08:00 +7°C° 0 mm 1 mps 694 mmHg 48%
    09:00 +8°C° 0 mm 1 mps 695 mmHg 43%
    10:00 +9°C° 0 mm 1 mps 695 mmHg 39%
    11:00 +10°C° 0 mm 1 mps 695 mmHg 35%
    12:00 +11°C° 0 mm 1 mps 694 mmHg 32%
    13:00 +11°C° 0 mm 0 mps 693 mmHg 29%
    14:00 +11°C° 0 mm 0 mps 693 mmHg 28%
    15:00 +11°C° 0 mm 0 mps 693 mmHg 27%
    16:00 +11°C° 0 mm 0 mps 693 mmHg 25%
    17:00 +11°C° 0 mm 0 mps 693 mmHg 27%
    18:00 +10°C° 0 mm 0 mps 693 mmHg 29%
    19:00 +10°C° 0 mm 1 mps 694 mmHg 30%
    20:00 +10°C° 0 mm 1 mps 694 mmHg 30%
    21:00 +9°C° 0 mm 2 mps 694 mmHg 30%
    22:00 +9°C° 0 mm 2 mps 694 mmHg 30%
    23:00 +9°C° 0 mm 3 mps 694 mmHg 31%

    23 January, Wednesday

    Time Temperature Precipitation Wind Pressure Humidity
    00:00 +8°C° 0 mm 3 mps 694 mmHg 32%
    01:00 +8°C° 0 mm 3 mps 694 mmHg 33%
    02:00 +7°C° 0 mm 3 mps 694 mmHg 35%
    03:00 +7°C° 0 mm 3 mps 694 mmHg 36%
    04:00 +7°C° 0 mm 3 mps 694 mmHg 37%
    05:00 +5°C° 0 mm 3 mps 694 mmHg 38%
    06:00 +5°C° 0 mm 3 mps 695 mmHg 39%
    07:00 +5°C° 0 mm 4 mps 695 mmHg 41%
    08:00 +7°C° 0 mm 4 mps 696 mmHg 36%
    09:00 +8°C° 0 mm 4 mps 696 mmHg 31%
    10:00 +10°C° 0 mm 5 mps 697 mmHg 26%
    11:00 +12°C° 0 mm 4 mps 697 mmHg 23%
    12:00 +13°C° 0 mm 3 mps 696 mmHg 21%
    13:00 +13°C° 0 mm 3 mps 696 mmHg 18%
    14:00 +15°C° 0 mm 2 mps 695 mmHg 18%
    15:00 +15°C° 0 mm 2 mps 695 mmHg 17%
    16:00 +15°C° 0 mm 2 mps 695 mmHg 17%
    17:00 +14°C° 0 mm 2 mps 695 mmHg 19%
    18:00 +12°C° 0 mm 3 mps 695 mmHg 20%
    19:00 +11°C° 0 mm 3 mps 695 mmHg 22%
    20:00 +10°C° 0 mm 4 mps 695 mmHg 24%
    21:00 +10°C° 0 mm 4 mps 696 mmHg 26%
    22:00 +8°C° 0 mm 4 mps 696 mmHg 28%
    23:00 +8°C° 0 mm 4 mps 695 mmHg 30%
    Show more